Lid_Strength_Index
-1 -2 -1 -0 -0 0 -0 -0 -0 -1 -1 -1 -1 -1 -1 -1 -1 -1 -1 -1 -1 -2 -2 -2 -2 -2 -2 -2 -1 -2 -1 -1
-1 -2 -2 -2 -2 -0 -0 -0 -0 -1 -1 -1 -1 -1 -1 -1 -1 -1 -1 -1 -1 -2 -2 -1 -1 -2 -2 -2 -1 -0 -1 -1
-1 -1 -1 -2 -2 -1 -1 -1 -1 -1 -1 -1 -0 -2 -2 -2 -1 -1 -1 -1 -1 -1 -1 -1 -1 -1 -2 -2 -1 -1 -1 -1
-0 -1 -1 -1 -1 -2 -2 -1 -2 -2 -2 -2 -2 -2 -2 -1 -1 -1 -1 -1 -1 -1 -1 -1 -1 -1 -1 -1 -1 -1 -1 -1
-0 -1 -1 -1 -1 -1 -1 -1 -1 -2 -2 -2 -2 -2 -2 -1 -1 -1 -2 -1 -1 -1 -1 -1 -2 -1 -1 -2 -2 -2 -1 -1
-0 -1 -1 -1 -1 -1 -1 -1 -1 -1 -1 -2 -2 -1 -1 -1 -1 -1 -2 -2 -2 -2 -1 -2 -2 -2 -2 -2 -2 -1 -1 -1
-0 -1 -1 -1 -1 -1 -1 -1 -1 -1 -2 -2 -1 -1 -1 -1 -1 -1 -1 -2 -1 -1 -1 -1 -1 -1 -2 -1 -1 -1 -2 -1
-0 -0 -1 -1 -1 -1 -1 -1 -1 -1 -1 -1 -2 -1 -1 -1 -1 -1 -1 -1 -1 -1 -1 -1 -1 -1 -1 -1 -1 -1 -1 -2
-0 -0 -1 -1 -1 -1 -1 -1 -1 -1 -1 -2 -2 -2 -2 -1 -1 -1 -1 -2 -2 -2 -2 -1 -1 -1 -1 -1 -1 -1 -1 -2
-0 -0 -1 -1 -1 -1 -1 -1 -1 -1 -1 -1 -2 -1 -2 -1 -1 -1 -1 -2 -1 -1 -1 -0 -0 -0 -0 -0 -1 -1 -1 -2
0 -0 -0 -0 -1 -1 -1 -1 -1 -1 -1 -1 -2 -2 -1 -1 -1 -1 -2 -1 -1 -1 -0 -0 0 0 0 -0 -0 -0 -1 -1
2 1 -0 -1 -1 -0 -0 -0 -1 -1 -1 -1 -2 -1 -2 -1 -1 -1 -1 -0 -0 -0 -0 -0 0 0 0 0 -0 -0 -1 -1
3 3 2 2 0 1 1 1 0 -0 -1 -1 -1 -1 -1 -1 -0 -0 -1 -0 -0 -0 -0 0 1 -0 1 1 0 -0 -0 -0
2 1 2 3 2 1 1 1 0 -0 -0 -1 -1 -1 -1 -1 -0 -0 -0 -0 -0 -0 0 1 1 0 2 2 4 2 1 0
3 3 2 2 3 2 1 0 0 1 0 0 -0 -1 -1 -1 -1 -0 -0 -0 0 0 0 1 2 1 0 2 4 5 2 1
2 3 5 3 3 5 5 6 2 1 1 -0 -0 -1 -1 -1 -1 -0 -0 -0 0 0 0 0 1 2 1 1 1 1 4 4
3 2 3 5 5 5 6 8 7 3 1 0 0 -0 -1 -0 -0 -0 -0 -0 -0 0 0 0 1 1 1 1 1 2 2 3
4 4 3 3 4 6 6 7 8 9 8 4 1 1 0 -0 -0 -0 -0 -0 0 0 0 0 1 1 1 1 2 3 3 3
4 4 5 4 4 5 7 7 7 8 9 8 7 5 1 0 -0 0 0 -0 -0 -0 0 0 0 1 1 1 1 1 1 1
3 4 4 5 5 5 6 7 7 8 9 10 9 8 8 7 5 0 -0 -0 -0 -0 0 0 0 1 1 1 1 1 1 1